Marshfield, WI

4:08 AM CDT on October 22, 2019 (GMT -0500)
Marshfield Municipal

Weather History for KMFI - July, 2019

Change the Weather History Date:

Monday, July 22, 2019

  Actual Average Record
Temperature  
Mean Temperature 66 °F -  
Max Temperature 77 °F 82 °F 94 °F (1983)
Min Temperature 57 °F 57 °F 40 °F (1947)
Cooling Degree Days 1    
Growing Degree Days 16 (Base 50)    
Moisture  
Dew Point 53 °F    
Average Humidity 62    
Maximum Humidity 84    
Minimum Humidity 41    
Precipitation  
Precipitation 0.00 in - - ()
Sea Level Pressure  
Sea Level Pressure 30.13 in    
Wind  
Wind Speed 8 mph (North)    
Max Wind Speed 14 mph    
Max Gust Speed 30 mph    
Visibility 10 miles    
Events      
Averages and records for this station are not official NWS values.
T = Trace of Precipitation, MM = Missing Value Source: NWS Daily Summary

Daily Weather History Graph

Daily Weather History Graph

Search for Another Location

Airport or City:

Astronomy

Jul. 22, 2019 Rise Set
Actual Time 5:36 AM CDT 8:37 PM CDT
Civil Twilight 5:01 AM CDT 9:12 PM CDT
Nautical Twilight 4:16 AM CDT 9:56 PM CDT
Astronomical Twilight 3:23 AM CDT 10:49 PM CDT
Moon 11:45 PM CDT 11:04 AM CDT
Length of Visible Light 16h 10m
Length of Day
15h 01m
Waning Gibbous, 72% of the Moon is Illuminated
Jul 22
Waning Gibbous
Jul 24
Last Quarter
Jul 31
New
Aug 7
First Quarter
Aug 15
Full

Hourly Weather History & Observations

Time (CDT) Temp. Dew Point Humidity Pressure Visibility Wind Dir Wind Speed Gust Speed Precip Events Conditions
12:54 AM 64.9 °F 55.0 °F 70% 30.09 in 10.0 mi NNE 9.2 mph - N/A   Overcast
1:54 AM 63.0 °F 55.9 °F 78% 30.09 in 10.0 mi ENE 5.8 mph - N/A   Overcast
2:54 AM 63.0 °F 55.0 °F 75% 30.10 in 10.0 mi NNE 6.9 mph - N/A   Overcast
3:54 AM 62.1 °F 54.0 °F 75% 30.11 in 10.0 mi NE 6.9 mph - N/A   Overcast
4:54 AM 61.0 °F 54.0 °F 78% 30.11 in 10.0 mi NNE 6.9 mph - N/A   Overcast
5:54 AM 57.9 °F 53.1 °F 84% 30.13 in 10.0 mi NE 4.6 mph - N/A   Clear
6:54 AM 60.1 °F 53.1 °F 78% 30.14 in 10.0 mi NNE 4.6 mph - N/A   Clear
7:54 AM 63.0 °F 55.0 °F 75% 30.15 in 10.0 mi NNW 6.9 mph - N/A   Clear
8:54 AM 66.0 °F 53.1 °F 63% 30.16 in 10.0 mi NNE 9.2 mph - N/A   Clear
9:54 AM 68.0 °F 50.0 °F 52% 30.17 in 10.0 mi North 9.2 mph 19.6 mph N/A   Partly Cloudy
10:54 AM 70.0 °F 48.0 °F 46% 30.16 in 10.0 mi North 10.4 mph 24.2 mph N/A   Clear
11:54 AM 71.1 °F 50.0 °F 47% 30.16 in 10.0 mi North 8.1 mph 29.9 mph N/A   Partly Cloudy
12:54 PM 73.0 °F 50.0 °F 44% 30.16 in 10.0 mi NNE 11.5 mph 24.2 mph N/A   Partly Cloudy
1:54 PM 75.0 °F 50.0 °F 41% 30.14 in 10.0 mi NNE 10.4 mph 21.9 mph N/A   Scattered Clouds
2:54 PM 73.9 °F 51.1 °F 45% 30.14 in 10.0 mi NW 12.7 mph 18.4 mph N/A   Scattered Clouds
3:54 PM 75.9 °F 51.1 °F 42% 30.13 in 10.0 mi NNW 11.5 mph 19.6 mph N/A   Scattered Clouds
4:54 PM 75.9 °F 52.0 °F 43% 30.12 in 10.0 mi NNW 13.8 mph 25.3 mph N/A   Clear
5:54 PM 75.0 °F 53.1 °F 46% 30.12 in 10.0 mi NW 10.4 mph - N/A   Clear
6:54 PM 73.0 °F 54.0 °F 51% 30.12 in 10.0 mi NNW 8.1 mph - N/A   Clear
7:54 PM 69.1 °F 55.0 °F 61% 30.12 in 10.0 mi NW 6.9 mph - N/A   Clear
8:54 PM 64.9 °F 54.0 °F 68% 30.13 in 10.0 mi WNW 4.6 mph - N/A   Clear
9:54 PM 63.0 °F 54.0 °F 72% 30.14 in 10.0 mi WNW 4.6 mph - N/A   Clear
10:54 PM 61.0 °F 54.0 °F 78% 30.14 in 10.0 mi WNW 4.6 mph - N/A   Clear
11:54 PM 61.0 °F 55.0 °F 81% 30.14 in 10.0 mi WNW 5.8 mph - N/A   Clear